[[{"header":{"parameterUnit":"m.s-1","parameterCategory":1,"la1":30.2991,"la2":30.254,"lo1":-89.0895,"lo2":-89.0444,"dy":0.0017,"dx":0.0017,"nx":28,"ny":28,"refTime":"2024-03-18T21:00:00:Z","depth":0,"parameterNumber":2,"parameterNumberName":"U-component_of_WINDS"},"data":[0,0,0,0,0,0,0,0,0,0,0,0,0,0,0,0,0,0,0,0,0,0,0,0,0,0,0,0,0,0,0,0,0,0,0,0,0,0,0,0,0,0,0,0,0,0,0,0,0,0,0,0,0,0,0,0,0,0,-1.3385,-1.3387,0,-1.3555,-1.3557,-1.3559,-1.3553,-1.355,-1.3548,-1.3546,-1.3724,-1.3731,-1.3738,0,0,0,0,0,0,0,0,0,0,0,0,0,-1.3058,-1.3064,-1.3385,-1.3387,-1.3389,-1.3554,-1.3557,-1.3559,-1.3553,-1.355,-1.3547,-1.3545,-1.3722,-1.373,-1.3739,0,0,0,0,0,0,0,0,0,0,0,0,0,-1.3212,-1.3066,-1.3384,-1.3406,-1.3409,-1.3554,-1.3557,-1.356,-1.3554,-1.355,-1.3547,-1.3543,-1.3719,-1.373,-1.374,-1.3876,0,0,-1.3772,-1.3776,0,0,0,0,0,0,0,0,-1.3203,-1.3224,-1.3401,-1.3405,-1.3409,-1.3529,-1.3507,-1.3666,-1.3555,-1.3499,-1.3546,-1.3541,-1.3663,-1.3677,-1.3717,-1.3884,-1.3892,-1.3773,-1.3779,-1.3784,-1.3787,0,0,0,0,0,0,0,-1.3192,-1.3216,-1.3452,-1.3403,-1.3408,-1.3408,-1.3426,-1.3537,-1.3599,-1.3504,-1.3504,-1.3524,-1.3664,-1.3707,-1.3721,-1.3894,-1.3772,-1.3782,-1.3788,-1.3792,-1.4181,-1.4185,0,0,0,0,0,0,-1.3176,-1.3207,-1.3447,-1.3457,-1.3295,-1.3417,-1.3437,-1.3494,-1.3598,-1.361,-1.3526,-1.3523,-1.3691,-1.3709,-1.3728,-1.3894,-1.3783,-1.3793,-1.3799,-1.4177,-1.4182,-1.4186,0,0,0,0,0,0,-1.317,-1.3198,-1.344,-1.3332,-1.3363,-1.3426,-1.3491,-1.3499,-1.3542,-1.3615,-1.3626,-1.3559,-1.3689,-1.3713,-1.3839,-1.39,-1.3798,-1.3808,-1.4172,-1.4178,-1.4184,-1.4228,0,0,0,0,0,0,-1.316,-1.3195,-1.3247,-1.3333,-1.3369,-1.3547,-1.3494,-1.3505,-1.356,-1.3556,-1.3648,-1.366,-1.3688,-1.3823,-1.3849,-1.3913,-1.3816,-1.4167,-1.4175,-1.4182,-1.4221,-1.4234,-1.4246,0,0,0,0,0,-1.3149,-1.3254,-1.325,-1.3279,-1.3435,-1.3551,-1.3571,-1.36,-1.3565,-1.3618,-1.3664,-1.3657,-1.3888,-1.3836,-1.3865,-1.3933,-1.4163,-1.4173,-1.4181,-1.4215,-1.4232,-1.4246,0,0,0,0,0,0,-1.3175,-1.3266,-1.3262,-1.3398,-1.3466,-1.3549,-1.3618,-1.3616,-1.3697,-1.3691,-1.3724,-1.3745,-1.3871,-1.3914,-1.3854,-1.407,-1.4022,-1.4037,-1.4037,-1.4054,-1.4066,-1.4054,-1.3824,0,0,0,0,0,-1.3196,-1.3282,-1.3357,-1.3469,-1.3504,-1.3554,-1.3606,-1.3622,-1.3695,-1.3724,-1.378,-1.3852,-1.3941,-1.3999,-1.4085,-1.4226,-1.4247,-1.4287,-1.4299,-1.4309,-1.4323,-1.4401,-1.442,-1.4216,-1.4216,-1.4216,0,0,-1.3242,-1.3302,-1.3355,-1.3476,-1.3531,-1.362,-1.3579,-1.3675,-1.3742,-1.374,-1.3862,-1.3904,-1.3987,-1.4121,-1.4183,-1.4161,-1.4383,-1.4321,-1.4328,-1.4337,-1.4413,-1.4432,-1.4449,-1.4222,-1.4221,-1.422,0,0,-1.3372,-1.3425,-1.3525,-1.358,-1.3662,-1.3695,-1.3719,-1.3802,-1.383,-1.3952,-1.3952,-1.4032,-1.4184,-1.4243,-1.4293,-1.4442,-1.4439,-1.4469,-1.4535,-1.4611,-1.4627,-1.4641,-1.4696,-1.4715,-1.4482,-1.4482,-1.4482,0,-1.3419,-1.3552,-1.3577,-1.3673,-1.3727,-1.3726,-1.3828,-1.3881,-1.3988,-1.4026,-1.3999,-1.4189,-1.4245,-1.4393,-1.4429,-1.4469,-1.4498,-1.446,-1.4622,-1.4637,-1.4651,-1.4703,-1.4723,-1.4485,-1.4485,-1.4484,-1.4484,0,-1.3606,-1.3698,-1.3769,-1.3871,-1.3932,-1.4031,-1.4072,-1.4131,-1.4141,-1.4176,-1.4301,-1.4367,-1.4466,-1.4502,-1.4513,-1.4651,-1.4635,-1.4615,-1.4568,-1.4673,-1.4723,-1.4743,-1.449,-1.4489,-1.4488,-1.4487,0,0,-1.376,-1.3872,-1.3898,-1.3944,-1.4034,-1.4106,-1.4205,-1.43,-1.4351,-1.4424,-1.4508,-1.4636,-1.4617,-1.4674,-1.4691,-1.4757,-1.4872,-1.4729,-1.4731,-1.4755,-1.5029,-1.5046,-1.5068,-1.4869,-1.4873,-1.4876,-1.5023,0,-1.39,-1.4074,-1.4098,-1.4252,-1.4338,-1.4337,-1.4423,-1.4488,-1.4523,-1.4602,-1.4641,-1.4732,-1.4699,-1.4734,-1.4799,-1.4844,-1.4928,-1.4833,-1.495,-1.4954,-1.4931,-1.5094,-1.5112,-1.5248,-1.5042,-1.5046,-1.5048,0,-1.4088,-1.4164,-1.4326,-1.4404,-1.4441,-1.4517,-1.4606,-1.468,-1.4754,-1.4775,-1.4837,-1.4846,-1.4948,-1.4894,-1.5037,-1.4972,-1.5021,-1.505,-1.5056,-1.507,-1.5009,-1.5115,-1.5292,-1.5313,-1.5079,-1.5076,-1.5074,0,-1.4186,-1.4329,-1.4445,-1.4484,-1.4577,-1.4631,-1.4672,-1.4742,-1.4797,-1.4874,-1.4911,-1.4999,-1.5049,-1.5118,-1.515,-1.5108,-1.5291,-1.524,-1.5313,-1.5313,-1.5355,-1.5352,-1.5544,-1.5382,-1.5381,-1.5381,-1.5381,0,-1.4341,-1.4441,-1.449,-1.4561,-1.4673,-1.4699,-1.481,-1.4849,-1.4911,-1.4991,-1.4995,-1.507,-1.5107,-1.5188,-1.5214,-1.5329,-1.535,-1.5371,-1.5378,-1.5372,-1.537,-1.5407,-1.5399,-1.5387,-1.5385,-1.5384,-1.5383,0,-1.4471,-1.4508,-1.4634,-1.471,-1.4732,-1.4811,-1.4877,-1.4946,-1.4979,-1.508,-1.5105,-1.5159,-1.5254,-1.5292,-1.5409,-1.5426,-1.5559,-1.5557,-1.5534,-1.5536,-1.5608,-1.5601,-1.5832,-1.5864,-1.5679,-1.5681,-1.5682,0,-1.4569,-1.4646,-1.4729,-1.4782,-1.4825,-1.491,-1.4966,-1.4994,-1.5052,-1.5141,-1.52,-1.5294,-1.5372,-1.5523,-1.5573,-1.5663,-1.5664,-1.5738,-1.5678,-1.567,-1.5667,-1.5663,-1.5671,-1.5751,-1.5753,-1.5754,-1.5755,0,-1.474,-1.4754,-1.4833,-1.4919,-1.4985,-1.5054,-1.5121,-1.5165,-1.5203,-1.5268,-1.5365,-1.5424,-1.5542,-1.5637,-1.5728,-1.5772,-1.5771,-1.5773,-1.5795,-1.5792,-1.5777,-1.5788,-1.5567,-1.5769,-1.5768,-1.5767,-1.5766,-1.5765,-1.4859,-1.4926,-1.4995,-1.5084,-1.5137,-1.5199,-1.5268,-1.5309,-1.5389,-1.5487,-1.5498,-1.5602,-1.5672,-1.5795,-1.5842,-1.5924,-1.5905,-1.5936,-1.5945,-1.5953,-1.5958,-1.5761,-1.594,-1.594,-1.594,-1.5939,-1.5939,0,-1.5031,-1.5074,-1.5155,-1.5248,-1.5318,-1.5307,-1.5381,-1.544,-1.5531,-1.5596,-1.5671,-1.5781,-1.5872,-1.5928,-1.6019,-1.6074,-1.6076,-1.6097,-1.6095,-1.6105,-1.5969,-1.5942,-1.6094,-1.6094,-1.6094,-1.6094,-1.6094,-1.6094,-1.5129,-1.5243,-1.5264,-1.5405,-1.5448,-1.5548,-1.5591,-1.5649,-1.5701,-1.5824,-1.5898,-1.5933,-1.5995,-1.609,-1.6173,-1.6187,-1.6221,-1.6244,-1.6257,-1.613,-1.6114,-1.6099,-1.6074,-1.6251,-1.6251,-1.6386,-1.6388,-1.6388]},{"header":{"parameterUnit":"m.s-1","parameterCategory":1,"la1":30.2991,"la2":30.254,"lo1":-89.0895,"lo2":-89.0444,"dy":0.0017,"dx":0.0017,"nx":28,"ny":28,"refTime":"2024-03-18T21:00:00:Z","depth":0,"parameterNumber":3,"parameterNumberName":"V-component_of_WINDS"},"data":[0,0,0,0,0,0,0,0,0,0,0,0,0,0,0,0,0,0,0,0,0,0,0,0,0,0,0,0,0,0,0,0,0,0,0,0,0,0,0,0,0,0,0,0,0,0,0,0,0,0,0,0,0,0,0,0,0,0,-7.0405,-7.0407,0,-7.0568,-7.057,-7.0572,-7.0468,-7.0463,-7.0459,-7.0454,-7.0619,-7.0627,-7.0636,0,0,0,0,0,0,0,0,0,0,0,0,0,-7.0001,-7.0009,-7.0405,-7.0407,-7.0409,-7.0568,-7.057,-7.0572,-7.0469,-7.0463,-7.0457,-7.0452,-7.0616,-7.0626,-7.0637,0,0,0,0,0,0,0,0,0,0,0,0,0,-7.0172,-7.0012,-7.0405,-7.0377,-7.0376,-7.0567,-7.057,-7.0573,-7.047,-7.0463,-7.0456,-7.0449,-7.0612,-7.0625,-7.0638,-7.0865,0,0,-7.0679,-7.0685,0,0,0,0,0,0,0,0,-7.0162,-7.0187,-7.0379,-7.0379,-7.0379,-7.049,-7.0488,-7.0671,-7.0472,-7.0435,-7.0454,-7.0446,-7.0582,-7.0597,-7.0643,-7.0873,-7.088,-7.068,-7.0688,-7.0694,-7.0698,0,0,0,0,0,0,0,-7.0151,-7.0179,-7.0469,-7.0382,-7.0382,-7.0355,-7.0371,-7.0522,-7.0547,-7.0437,-7.043,-7.0451,-7.058,-7.0631,-7.0647,-7.0882,-7.068,-7.0692,-7.07,-7.0705,-7.1304,-7.1311,0,0,0,0,0,0,-7.0141,-7.017,-7.0464,-7.0474,-7.025,-7.0368,-7.0386,-7.0462,-7.0545,-7.055,-7.0457,-7.0446,-7.0612,-7.0631,-7.0652,-7.0922,-7.0694,-7.0706,-7.0714,-7.1296,-7.1306,-7.1314,0,0,0,0,0,0,-7.0133,-7.0169,-7.0458,-7.032,-7.0355,-7.0383,-7.0468,-7.0469,-7.0519,-7.056,-7.0563,-7.0505,-7.0607,-7.0633,-7.0813,-7.0926,-7.0712,-7.0725,-7.1287,-7.1299,-7.131,-7.1465,0,0,0,0,0,0,-7.0122,-7.0166,-7.0254,-7.0323,-7.0363,-7.0618,-7.0476,-7.0477,-7.0543,-7.053,-7.0605,-7.0611,-7.0603,-7.0793,-7.0826,-7.0941,-7.0735,-7.1277,-7.1292,-7.1306,-7.145,-7.1481,-7.1507,0,0,0,0,0,-7.0108,-7.0291,-7.0259,-7.0295,-7.0473,-7.0624,-7.0647,-7.0635,-7.0553,-7.064,-7.0665,-7.0608,-7.0908,-7.0813,-7.0848,-7.0969,-7.1269,-7.1288,-7.1305,-7.1437,-7.1475,-7.1507,0,0,0,0,0,0,-7.0235,-7.03,-7.0265,-7.0476,-7.0546,-7.0607,-7.0717,-7.0675,-7.0769,-7.0753,-7.0733,-7.0751,-7.0938,-7.0971,-7.0863,-7.1192,-7.1076,-7.1102,-7.1164,-7.12,-7.1228,-7.1217,-7.0746,0,0,0,0,0,-7.0287,-7.0406,-7.0455,-7.0637,-7.0674,-7.069,-7.0755,-7.074,-7.081,-7.0839,-7.0878,-7.0948,-7.1057,-7.113,-7.1234,-7.1454,-7.1468,-7.1554,-7.1582,-7.1606,-7.1629,-7.1746,-7.1784,-7.1373,-7.1373,-7.1372,0,0,-7.0397,-7.0447,-7.0523,-7.0664,-7.0716,-7.0837,-7.0715,-7.0849,-7.0939,-7.0859,-7.1031,-7.1062,-7.1138,-7.1339,-7.1429,-7.1372,-7.1745,-7.1629,-7.1647,-7.1657,-7.1768,-7.1807,-7.1842,-7.1385,-7.1383,-7.1381,0,0,-7.066,-7.071,-7.0866,-7.092,-7.1,-7.1009,-7.1047,-7.1114,-7.1132,-7.1304,-7.1246,-7.1351,-7.1541,-7.1598,-7.1651,-7.1933,-7.1883,-7.1967,-7.2117,-7.2231,-7.2264,-7.2292,-7.2392,-7.2428,-7.1989,-7.1989,-7.199,0,-7.0786,-7.0968,-7.0951,-7.109,-7.1153,-7.1086,-7.1243,-7.1296,-7.1406,-7.145,-7.1384,-7.162,-7.1667,-7.1879,-7.1948,-7.1994,-7.2035,-7.1959,-7.2261,-7.2289,-7.2316,-7.241,-7.2448,-7.1999,-7.1998,-7.1997,-7.1996,0,-7.1119,-7.1246,-7.1362,-7.147,-7.1546,-7.1693,-7.1697,-7.1776,-7.1753,-7.1768,-7.1943,-7.1997,-7.2109,-7.2158,-7.2137,-7.2367,-7.2329,-7.2263,-7.2146,-7.2365,-7.2454,-7.249,-7.2013,-7.2009,-7.2007,-7.2004,0,0,-7.1469,-7.1564,-7.1607,-7.1654,-7.1736,-7.1834,-7.1976,-7.2087,-7.2154,-7.2231,-7.235,-7.2511,-7.2449,-7.251,-7.2495,-7.2595,-7.2813,-7.2516,-7.2517,-7.2569,-7.3069,-7.3119,-7.3161,-7.278,-7.2787,-7.2793,-7.3062,0,-7.1736,-7.1987,-7.1975,-7.2209,-7.2325,-7.2262,-7.2386,-7.2449,-7.2467,-7.2567,-7.2585,-7.27,-7.261,-7.2646,-7.2743,-7.2767,-7.2913,-7.2747,-7.289,-7.2895,-7.2874,-7.3208,-7.3262,-7.3513,-7.3097,-7.3103,-7.3107,0,-7.2082,-7.2171,-7.2417,-7.2481,-7.2529,-7.2641,-7.274,-7.2837,-7.2906,-7.2911,-7.2979,-7.2946,-7.3089,-7.2968,-7.3163,-7.305,-7.3107,-7.3128,-7.3137,-7.3151,-7.3015,-7.323,-7.3594,-7.3632,-7.3161,-7.3157,-7.3153,0,-7.2312,-7.2493,-7.2663,-7.2706,-7.2784,-7.2864,-7.29,-7.2962,-7.3029,-7.3114,-7.3157,-7.3258,-7.3314,-7.3392,-7.3387,-7.3299,-7.3586,-7.3464,-7.3593,-7.3594,-7.3658,-7.3654,-7.4035,-7.3694,-7.3693,-7.3693,-7.3692,0,-7.2612,-7.2766,-7.2767,-7.2873,-7.3041,-7.3025,-7.3192,-7.3219,-7.3275,-7.3383,-7.3333,-7.3435,-7.3422,-7.3524,-7.352,-7.3683,-7.3708,-7.3716,-7.3713,-7.3721,-7.372,-7.3759,-7.3741,-7.3703,-7.37,-7.3698,-7.3697,0,-7.2899,-7.2906,-7.3088,-7.3146,-7.3164,-7.3286,-7.3335,-7.3434,-7.3446,-7.3583,-7.3614,-7.3634,-7.3751,-7.3753,-7.3888,-7.3885,-7.4083,-7.4061,-7.4061,-7.4056,-7.4186,-7.4174,-7.4606,-7.4662,-7.4284,-7.4288,-7.4291,0,-7.309,-7.3207,-7.3277,-7.3346,-7.3387,-7.3499,-7.3566,-7.3553,-7.3625,-7.3711,-7.3799,-7.3912,-7.4002,-7.4192,-7.4217,-7.4319,-7.4298,-7.4443,-7.4314,-7.4317,-7.4301,-7.4294,-7.4305,-7.4469,-7.4473,-7.4476,-7.4479,0,-7.343,-7.3427,-7.3526,-7.3627,-7.3709,-7.3787,-7.386,-7.3919,-7.3913,-7.3996,-7.4116,-7.4185,-7.4322,-7.4434,-7.4533,-7.4567,-7.4523,-7.4519,-7.4554,-7.4564,-7.4559,-7.4563,-7.413,-7.451,-7.4507,-7.4504,-7.4503,-7.4501,-7.3674,-7.3774,-7.3839,-7.3951,-7.4004,-7.4072,-7.4168,-7.4191,-7.4291,-7.4402,-7.4387,-7.452,-7.4584,-7.4711,-7.4755,-7.4857,-7.4807,-7.4859,-7.4872,-7.4885,-7.4899,-7.4542,-7.4875,-7.4874,-7.4873,-7.4873,-7.4872,0,-7.4011,-7.4049,-7.4152,-7.4255,-7.4342,-7.4292,-7.4369,-7.4445,-7.4563,-7.4627,-7.4716,-7.4852,-7.496,-7.4993,-7.5097,-7.5172,-7.5154,-7.52,-7.5195,-7.5204,-7.4938,-7.4897,-7.5213,-7.5213,-7.5213,-7.5213,-7.5213,-7.5213,-7.4197,-7.4363,-7.4368,-7.4558,-7.4595,-7.4725,-7.4774,-7.4836,-7.4886,-7.5041,-7.5131,-7.5151,-7.5202,-7.5309,-7.5405,-7.5411,-7.5452,-7.5507,-7.5505,-7.5257,-7.5222,-7.519,-7.5151,-7.5515,-7.5516,-7.5762,-7.5764,-7.5766]}]]